Arden, NC

3:34 AM EST on December 09, 2016 (GMT -0500)
Asheville Regional

Weather History for KAVL - January, 2008

Change the Weather History Date:

Thursday, January 3, 2008

  Actual Average Record
Temperature  
Mean Temperature 22 °F 37 °F  
Max Temperature 32 °F 47 °F 73 °F (2004)
Min Temperature 11 °F 27 °F 2 °F (1887)
Degree Days  
Heating Degree Days 43 28  
Month to date heating degree days 121 84  
Since 1 July heating degree days 1579 1745  
Cooling Degree Days 0 0  
Month to date cooling degree days 0 0  
Year to date cooling degree days 0 0  
Moisture  
Dew Point 6 °F    
Average Humidity 51    
Maximum Humidity 76    
Minimum Humidity 25    
Precipitation  
Precipitation 0.00 in 0.11 in 1.87 in (1982)
Month to date precipitation T 0.32  
Year to date precipitation T 0.32  
Snow  
Snow 0.00 in 0.10 in 4.00 in (1872)
Month to date snowfall 0.7 0.3  
Since 1 July snowfall 0.8 1.3  
Snow Depth -    
Sea Level Pressure  
Sea Level Pressure 30.69 in    
Wind  
Wind Speed 11 mph (NNW)    
Max Wind Speed 23 mph    
Max Gust Speed 28 mph    
Visibility 10 miles    
Events      
T = Trace of Precipitation, MM = Missing Value Source: NWS Daily Summary

Daily Weather History Graph

Daily Weather History Graph

Search for Another Location

Airport or City:

Trip Planner

Search our weather history database for the weather conditions in past years. The results will help you decide how hot, cold, wet, or windy it might be!

Date:

Astronomy

Jan. 03, 2008 Rise Set
Actual Time 7:39 AM EST 5:29 PM EST
Civil Twilight 7:11 AM EST 5:57 PM EST
Nautical Twilight 6:39 AM EST 6:29 PM EST
Astronomical Twilight 6:08 AM EST 7:00 PM EST
Moon 3:29 AM EST (1/3) 1:34 PM EST (1/3)
Length of Visible Light 10h 46m
Length of Day
9h 50m
Waning Crescent, 20% of the Moon is Illuminated
Jan 3
Waning Crescent
Jan 8
New
Jan 15
First Quarter
Jan 22
Full
Jan 30
Last Quarter

Hourly Weather History & Observations

Time (EST) Temp. Windchill Dew Point Humidity Pressure Visibility Wind Dir Wind Speed Gust Speed Precip Events Conditions
12:11 AM 15.8 °F 0.3 °F 8.6 °F 73% 30.52 in 10.0 mi North 16.1 mph 23.0 mph 0.00 in   Scattered Clouds
12:54 AM 14.0 °F -2.5 °F 8.1 °F 77% 30.61 in 10.0 mi NNW 17.3 mph 27.6 mph 0.00 in   Clear
1:54 AM 14.0 °F -1.4 °F 7.0 °F 74% 30.63 in 10.0 mi North 15.0 mph 25.3 mph N/A   Clear
2:54 AM 12.9 °F -2.2 °F 6.1 °F 74% 30.66 in 10.0 mi North 13.8 mph 20.7 mph N/A   Clear
3:54 AM 12.9 °F -5.3 °F 5.0 °F 71% 30.67 in 10.0 mi NNW 20.7 mph - N/A   Clear
4:54 AM 12.9 °F -4.4 °F 5.0 °F 71% 30.70 in 10.0 mi NNW 18.4 mph 26.5 mph N/A   Clear
5:54 AM 12.9 °F -3.4 °F 5.0 °F 71% 30.71 in 10.0 mi NNW 16.1 mph - N/A   Clear
6:54 AM 12.0 °F -2.7 °F 5.0 °F 73% 30.74 in 10.0 mi NW 12.7 mph - N/A   Clear
7:54 AM 12.0 °F -5.1 °F 5.0 °F 73% 30.76 in 10.0 mi NNW 17.3 mph - N/A   Clear
8:54 AM 14.0 °F -3.9 °F 6.1 °F 71% 30.77 in 10.0 mi NNW 20.7 mph - N/A   Clear
9:54 AM 18.0 °F 3.6 °F 7.0 °F 62% 30.77 in 10.0 mi North 15.0 mph - N/A   Clear
10:54 AM 21.9 °F 9.8 °F 9.0 °F 58% 30.75 in 10.0 mi North 12.7 mph - N/A   Clear
11:54 AM 26.1 °F 13.1 °F 10.0 °F 51% 30.73 in 10.0 mi NNW 17.3 mph 24.2 mph N/A   Clear
12:54 PM 28.0 °F 18.6 °F 9.0 °F 45% 30.70 in 10.0 mi North 10.4 mph - N/A   Clear
1:54 PM 30.0 °F 20.0 °F 8.1 °F 40% 30.67 in 10.0 mi North 12.7 mph - N/A   Clear
2:54 PM 32.0 °F 22.5 °F 5.0 °F 32% 30.66 in 10.0 mi NNW 12.7 mph - N/A   Clear
3:54 PM 32.0 °F 23.0 °F -0.0 °F 26% 30.66 in 10.0 mi North 11.5 mph - N/A   Clear
4:54 PM 30.9 °F 25.2 °F 1.0 °F 28% 30.66 in 10.0 mi North 5.8 mph - N/A   Clear
5:54 PM 27.0 °F 23.0 °F 3.9 °F 37% 30.68 in 10.0 mi WNW 3.5 mph - N/A   Clear
6:54 PM 26.1 °F 20.5 °F 3.9 °F 39% 30.70 in 10.0 mi NNW 4.6 mph - N/A   Clear
7:54 PM 26.1 °F 19.4 °F 3.9 °F 39% 30.71 in 10.0 mi North 5.8 mph - N/A   Clear
8:54 PM 23.0 °F 18.4 °F 7.0 °F 50% 30.71 in 10.0 mi NNW 3.5 mph - N/A   Clear
9:54 PM 21.0 °F - 8.1 °F 57% 30.71 in 10.0 mi Calm Calm - N/A   Clear
10:54 PM 19.0 °F - 10.9 °F 71% 30.71 in 10.0 mi Calm Calm - N/A   Clear
11:54 PM 18.0 °F - 12.0 °F 78% 30.70 in 10.0 mi Calm Calm - N/A   Clear